Tracking 17265 objects as of 5-September-2015
HD Live streaming from Space Station

Track Soyuz TMA-18M
and Space Station

COSMOS 2251 DEB

Track COSMOS 2251 DEB now!
10-day predictions
COSMOS 2251 DEB is classified as:


NORAD ID: 34781
Int'l Code: 1993-036AAJ
Perigee: 556.5 km
Apogee: 614.4 km
Inclination: 74.0 °
Period: 96.2 minutes
Semi major axis: 6956 km
RCS: 0.0067 m2 (small)
Launch date: June 16, 1993
Source: Commonwealth of Independent States (former USSR) (CIS)

Note: This is SATELLITE DEBRIS
Your satellite tracking list
Your tracking list is empty





NASA's NSSDC Master Catalog

Two Line Element Set (TLE):
1 34781U 93036AAJ 15245.21068411 +.00014730 +00000-0 +12809-2 0  9991
2 34781 074.0472 158.0310 0041652 221.0008 290.3237 14.96306377342728

Source of the keplerian elements: AFSPC

N2YO: 250